Regional Weather Roundup
Issued by NWS

Home | Current Version | Previous Version | Graphics & Text | Print | Product List | Glossary Off
Versions: 1 2 3 4 5 6 7 8 9 10 11 12 13 14 15 16 17 18 19 20 21 22 23 24 25 26 27 28 29 30 31 32 33 34 35 36 37 38 39 40 41 42 43 44 45 46 47 48 49 50

000
ASUS43 KTOP 270859
RWRKS

WEATHER ROUNDUP FOR KANSAS
NATIONAL WEATHER SERVICE GOODLAND KS
400 AM CDT SAT AUG 27 2016

NOTE:  "FAIR" INDICATES FEW OR NO CLOUDS BELOW 12,000 FEET WITH NO
SIGNIFICANT WEATHER AND/OR OBSTRUCTIONS TO VISIBILITY.

KSZ001>006-013>018-027>032-041>047-271000-
NORTHWEST KANSAS

CITY           SKY/WX    TMP DP  RH WIND       PRES   REMARKS
GOODLAND       FOG       52  52 100 S6        30.05F VSB 3/4
HAYS           CLOUDY    61  54  77 SE13      30.00F
HILL CITY      CLOUDY    57  56  96 CALM      30.03F
RUSSELL        LGT RAIN  61  61 100 SW9       30.03R
$$

KSZ061>065-074>080-084>089-271000-
SOUTHWEST KANSAS

CITY           SKY/WX    TMP DP  RH WIND       PRES   REMARKS
DODGE CITY     CLOUDY    63  60  90 NE13      30.07R
ELKHART          N/A     62  54  75 SW9         N/A
GARDEN CITY    CLOUDY    64  59  83 E12       30.04R
GREAT BEND     CLOUDY    63  54  72 NW6       30.06S
LIBERAL        PTCLDY    64  55  72 S3        30.05R
$$

KSZ066>073-081>083-090>101-271000-
SOUTHEAST KANSAS

CITY           SKY/WX    TMP DP  RH WIND       PRES   REMARKS
CHANUTE        PTCLDY    70  68  93 CALM      30.02R
COFFEYVILLE    MOCLDY    71  70  96 SE5       30.01R
HUTCHINSON     CLOUDY    70  66  87 N14G20    30.03R
MEDICINE LODGE   N/A     68  66  93 SE3       29.98F
NEWTON         CLOUDY    69  68  96 CALM      30.02R
PARSONS        MOCLDY    70  69  97 CALM      30.02R
WICHITA INTL   CLEAR     69  67  93 SE6       29.99S
WICHITA JABRA  CLEAR     68  68 100 CALM      30.00R
WINFIELD       CLEAR     69  67  93 CALM      30.00F
$$

KSZ007>012-019>026-033>040-048>060-102>105-271000-
NORTHEAST KANSAS

CITY           SKY/WX    TMP DP  RH WIND       PRES   REMARKS
CONCORDIA      CLOUDY    64  63  96 S5        29.99F
EMPORIA        CLOUDY    68  67  96 E6        30.02R
LAWRENCE       MOCLDY    68  68 100 SE5       30.01R
MANHATTAN      TSTM      68  66  93 NW9G24    30.03R FOG
OLATHE IND     PTCLDY    69  68  96 SE8       30.02S
OLATHE EXE     MOCLDY   N/A N/A N/A S5        30.02S
SALINA         LGT RAIN  66  64  93 N6        30.03F
TOPEKA BILLARD CLOUDY    69  67  93 CALM      30.01R
TOPEKA FORBES  CLOUDY    71  69  93 SE7       30.01R
$$



USA.gov is the U.S. government's official web portal to all federal, state and local government web resources and services.